TimeCST,TemperatureF,Dew PointF,Humidity,Sea Level PressureIn,VisibilityMPH,Wind Direction,Wind SpeedMPH,Gust SpeedMPH,PrecipitationIn,Events,Conditions,WindDirDegrees,DateUTC
12:53 AM,48.0,28.0,46,29.83,10.0,North,3.5,-,N/A,,Clear,360,2012-11-26 06:53:00
1:53 AM,46.9,27.0,46,29.84,10.0,Calm,Calm,-,N/A,,Clear,0,2012-11-26 07:53:00
2:53 AM,45.0,27.0,49,29.84,10.0,West,3.5,-,N/A,,Clear,280,2012-11-26 08:53:00
3:53 AM,39.9,26.1,58,29.86,10.0,Calm,Calm,-,N/A,,Clear,0,2012-11-26 09:53:00
4:53 AM,39.0,25.0,57,29.87,10.0,North,8.1,-,N/A,,Clear,350,2012-11-26 10:53:00
5:53 AM,39.0,25.0,57,29.88,10.0,NNW,3.5,-,N/A,,Clear,330,2012-11-26 11:53:00
6:53 AM,42.1,27.0,55,29.92,10.0,NNE,4.6,-,N/A,,Clear,20,2012-11-26 12:53:00
7:53 AM,41.0,27.0,57,29.95,10.0,Calm,Calm,-,N/A,,Clear,0,2012-11-26 13:53:00
8:53 AM,55.0,30.9,40,29.96,10.0,Calm,Calm,-,N/A,,Mostly Cloudy,0,2012-11-26 14:53:00
9:53 AM,60.1,32.0,35,29.97,10.0,Calm,Calm,-,N/A,,Clear,0,2012-11-26 15:53:00
10:53 AM,69.1,32.0,25,29.98,10.0,Variable,3.5,-,N/A,,Clear,0,2012-11-26 16:53:00
11:53 AM,75.9,28.9,18,29.97,10.0,Variable,4.6,-,N/A,,Clear,0,2012-11-26 17:53:00
12:53 PM,79.0,25.0,14,29.94,-9999.0,North,10.4,-,N/A,,Clear,350,2012-11-26 18:53:00
1:53 PM,80.1,21.0,11,29.91,-9999.0,North,10.4,-,N/A,,Clear,350,2012-11-26 19:53:00
2:53 PM,80.1,21.0,11,29.91,10.0,North,8.1,-,N/A,,Clear,350,2012-11-26 20:53:00
3:53 PM,75.9,18.0,11,29.96,10.0,NE,18.4,24.2,N/A,,Partly Cloudy,50,2012-11-26 21:53:00
4:53 PM,69.1,24.1,18,30.01,10.0,NNE,13.8,27.6,N/A,,Overcast,30,2012-11-26 22:53:00
5:53 PM,64.0,28.0,26,30.06,10.0,NE,19.6,26.5,N/A,,Mostly Cloudy,50,2012-11-26 23:53:00
6:53 PM,60.1,30.0,32,30.11,10.0,NE,18.4,25.3,N/A,,Partly Cloudy,50,2012-11-27 00:53:00
7:53 PM,57.0,30.0,36,30.17,10.0,NE,16.1,23.0,N/A,,Mostly Cloudy,50,2012-11-27 01:53:00
8:53 PM,53.1,30.0,41,30.19,10.0,ENE,17.3,24.2,N/A,,Clear,70,2012-11-27 02:53:00
9:53 PM,50.0,28.0,43,30.22,10.0,NE,15.0,26.5,N/A,,Clear,50,2012-11-27 03:53:00
10:53 PM,48.2,26.6,43,30.34,10.0,NNE,17.3,-,N/A,,Overcast,30,2012-11-27 04:53:00
11:53 PM,45.0,26.1,48,30.30,10.0,NNE,12.7,-,N/A,,Clear,20,2012-11-27 05:53:00